Regional Weather Roundup
Issued by NWS Goodland, KS

Home | Current Version | Previous Version | Graphics & Text | Print | Product List | Glossary On
Versions: 1 2 3 4 5 6 7 8 9 10 11 12 13 14 15 16 17 18 19 20 21 22 23 24 25 26 27 28 29 30 31 32 33 34 35 36 37 38 39 40 41 42 43 44 45 46 47 48 49 50
000
ASUS43 KGLD 300408
RWRGLD

GOODLAND FORECAST AREA HOURLY WEATHER ROUNDUP
NATIONAL WEATHER SERVICE GOODLAND KS
1000 PM MDT FRI JUL 29 2016

...OFFICIAL OBSERVATIONS...

CITY           SKY/WX    TMP DP  RH WIND       PRES   REMARKS
GOODLAND KS    CLOUDY    67  62  84 S6        30.12R
HILL CITY KS   CLOUDY    72  66  81 CALM      30.06R
IMPERIAL NEB   PTCLDY    72  63  73 S3        30.08R
MCCOOK NEB     CLOUDY    71  65  81 E8        30.07R
AKRON CO       CLOUDY    69  61  75 SE16      30.15R
BURLINGTON CO  PTCLDY    68  61  78 SE8       30.14R
LIMON CO       MOCLDY    66  60  81 SE10      30.22R
$$

...UNOFFICIAL OBSERVATIONS...

CITY           SKY/WX    TMP DP  RH WIND       PRES   REMARKS
LENORA KS        N/A     70  32  24 MISG        N/A
NORTON KS      CLEAR     70  61  73 E5        30.07R
SHARON SPRINGS   N/A     69  63  81 CALM        N/A
KIT CARSON CO    N/A     68  58  71 CALM        N/A
YUMA CO          N/A     68  63  83 CALM        N/A
$$




USA.gov is the U.S. government's official web portal to all federal, state and local government web resources and services.